Home   Weather   Lausanne   Past weeks

Flag for Switzerland Past Weather in Lausanne, Vaud, Switzerland — Yesterday and Last 2 Weeks

Now
39 °F

Chilly.


Feels Like: 39 °F
Forecast: 28 / 45 °F
Wind: No wind

Location: Aigle

Current Time: Dec 3, 2016 at 4:53:24 pm

Latest Report: Dec 3, 2016 at 4:00 pm


Visibility: N/A

Pressure: 30.16 "Hg

Humidity: 74%

Dew Point: 32 °F

Location of LausanneLocation

Past Weather in Lausanne — Graph

°F

Lausanne Temperature Yesterday

Maximum temperature yesterday: 42 °F (at 2:00 pm)
Minimum temperature yesterday: 28 °F (at 12:00 am)
Average temperature yesterday: 33 °F

High & Low Weather Summary for the Past Weeks

 TemperatureHumidityPressure
High67 °F (Nov 21, 6:00 pm)100% (Nov 27, 1:00 am)30.64 "Hg (Nov 27, 1:00 am)
Low28 °F (Dec 1, 8:00 am)30% (Nov 20, 5:00 pm)29.55 "Hg (Nov 21, 6:00 pm)
Average43 °F80%30.05 "Hg
* Reported Nov 18 3:00 pm — Dec 3 3:00 pm, Lausanne, Weather by CustomWeather, © 2016

Note: Actual official high and low records may vary slightly from our data, if they occured in-between our weather recording intervals... More about our weather records

Advertising

Lausanne Weather History for the Previous 24 Hours

Scroll right to see more
 ConditionsComfort  
Time TempWeatherWind HumidityBarometerVisibility
3:00 pm
Sat, Dec 3
39 °FChilly.2 mph83%30.15 "HgN/A
2:00 pm38 °FChilly.2 mph81%30.15 "HgN/A
1:00 pm38 °FFog.1 mph81%30.15 "Hg5 mi
12:00 pm36 °FChilly.2 mph83%30.16 "HgN/A
11:00 am35 °FChilly.1 mph82%30.18 "HgN/A
10:00 am33 °FFog.1 mph86%30.16 "Hg4 mi
9:00 am32 °FChilly.1 mph93%30.16 "HgN/A
8:00 am31 °FChilly.1 mph96%30.14 "HgN/A
7:00 am32 °FFog.1 mph88%30.12 "Hg5 mi
6:00 am34 °FChilly.5 mph86%30.12 "HgN/A
5:00 am33 °FChilly.2 mph90%30.12 "HgN/A
4:00 am33 °FClear.1 mph92%30.12 "Hg22 mi
3:00 am32 °FChilly.1 mph94%30.13 "HgN/A
2:00 am31 °FChilly.1 mph95%30.14 "HgN/A
1:00 am31 °FChilly.1 mph94%30.14 "HgN/A
12:00 am29 °FChilly.1 mph97%30.15 "HgN/A
11:00 pm
Fri, Dec 2
31 °FChilly.1 mph94%30.14 "HgN/A
10:00 pm29 °FChilly.No wind98%30.14 "HgN/A
9:00 pm30 °FChilly.1 mph98%30.14 "HgN/A
8:00 pm31 °FChilly.1 mph97%30.15 "HgN/A
7:00 pm33 °FPassing clouds.1 mph92%30.14 "Hg9 mi
6:00 pm33 °FChilly.1 mph91%30.14 "HgN/A
5:00 pm35 °FChilly.1 mph88%30.14 "HgN/A
4:00 pm35 °FScattered clouds.2 mph87%30.13 "Hg19 mi
Weather by CustomWeather, © 2016

See weather overviewHow to use our weather pages